Retour au catalogue

STARLINK-4438

ActifCommunicationsSSO
NORAD 53682·PAYLOAD·🇺🇸 United States

Lancé Aug 31, 2022 depuis Vandenberg Space Force Base

Loading…

Prochains Passages (prochaines 24 heures)

TLE

FraisSource: CelesTrak SupGP

Époque: Sep 15, 2026, 02:19 UTC

1 53682C 22105AL  26258.09701389  .00063335  00000+0  19661-2 0  2586
2 53682  97.2842 134.8768 0001800  96.8476 231.4191 15.33406062    16

Suivez STARLINK-4438 en temps réel avec AllMySat

Download on the App Store